This is the latest recevied weather packets stored in our database for station/object XE2B-20. If no packets are shown the sender has not sent any weather packets the latest 10 day(s).
| Time | Temp. | Humidity | Pressure | Rain* | Wind** | Luminosity | Snow |
|---|---|---|---|---|---|---|---|
| 1777336524 | 30.56° C | 15% | 802.9 hPa | - | - | - | - |
| 1777335025 | 31.67° C | 14% | 802.7 hPa | - | - | - | - |
| 1777332030 | 33.33° C | 13% | 802.6 hPa | - | - | - | - |
| 1777330531 | 33.33° C | 14% | 802.7 hPa | - | - | - | - |
| 1777329033 | 33.89° C | 14% | 802.7 hPa | - | - | - | - |
| 1777327533 | 35° C | 14% | 802.9 hPa | - | - | - | - |
| 1777326036 | 34.44° C | 14% | 803 hPa | - | - | - | - |
| 1777324537 | 35.56° C | 13% | 803.3 hPa | - | - | - | - |
| 1777323038 | 35° C | 14% | 803.6 hPa | - | - | - | - |
| 1777321539 | 34.44° C | 14% | 803.9 hPa | - | - | - | - |
| 1777320041 | 35° C | 14% | 804.3 hPa | - | - | - | - |
| 1777318542 | 35° C | 14% | 804.5 hPa | - | - | - | - |
| 1777317042 | 34.44° C | 14% | 804.8 hPa | - | - | - | - |
| 1777315543 | 35° C | 14% | 805.1 hPa | - | - | - | - |
| 1777314045 | 35° C | 14% | 805.5 hPa | - | - | - | - |
| 1777312544 | 35° C | 14% | 805.9 hPa | - | - | - | - |
| 1777311046 | 35° C | 14% | 806.3 hPa | - | - | - | - |
| 1777309547 | 33.89° C | 15% | 806.5 hPa | - | - | - | - |
| 1777308047 | 33.33° C | 14% | 806.8 hPa | - | - | - | - |
| 1777306548 | 32.78° C | 14% | 807 hPa | - | - | - | - |
| 1777305054 | 31.11° C | 15% | 806.9 hPa | - | - | - | - |
| 1777303550 | 30° C | 16% | 806.9 hPa | - | - | - | - |
| 1777302052 | 30° C | 15% | 806.8 hPa | - | - | - | - |
| 1777300553 | 27.78° C | 15% | 806.8 hPa | - | - | - | - |
| 1777299052 | 25° C | 17% | 806.7 hPa | - | - | - | - |
* Rain since midnight (hover to see other rain measurements)
** Current wind speed in m/s (hover to see current wind gust speed)